owner,sensor,date,latitude,longitude,vertical_datum,wind_speed,wind_to_direction,wind_speed_of_gust,qcFlag 
TCOON,ioos:station:TCOON:031:1,2013-03-01T00:00:00Z,28.4073,-96.7122,0.0,3.6,340.0,,'1111122,1111122,1111122' 
TCOON,ioos:station:TCOON:031:1,2013-03-01T01:00:00Z,28.4073,-96.7122,0.0,1.3,327.0,1.8,'11111222,11111222,11111222' 
TCOON,ioos:station:TCOON:031:1,2013-03-01T02:00:00Z,28.4073,-96.7122,0.0,1.5,337.0,1.7,'11111222,11111222,11111222' 
TCOON,ioos:station:TCOON:031:1,2013-03-01T03:00:00Z,28.4073,-96.7122,0.0,1.5,327.0,1.8,'11111222,11111222,11111222' 
TCOON,ioos:station:TCOON:031:1,2013-03-01T04:00:00Z,28.4073,-96.7122,0.0,1.1,344.0,1.2,'11111222,11111222,11111222' 
TCOON,ioos:station:TCOON:031:1,2013-03-01T05:00:00Z,28.4073,-96.7122,0.0,1.4,329.0,1.7,'11111222,11111222,11111222' 
TCOON,ioos:station:TCOON:031:1,2013-03-01T06:00:00Z,28.4073,-96.7122,0.0,0.4,219.0,0.5,'11111222,11111222,11111222' 
TCOON,ioos:station:TCOON:031:1,2013-03-01T07:00:00Z,28.4073,-96.7122,0.0,1.2,190.0,1.6,'11111222,11111222,11111222' 
TCOON,ioos:station:TCOON:031:1,2013-03-01T08:00:00Z,28.4073,-96.7122,0.0,1.7,252.0,1.9,'11111222,11111222,11111222' 
TCOON,ioos:station:TCOON:031:1,2013-03-01T09:00:00Z,28.4073,-96.7122,0.0,2.1,270.0,,'1111122,1111122,1111122' 
TCOON,ioos:station:TCOON:031:1,2013-03-01T10:00:00Z,28.4073,-96.7122,0.0,2.1,280.0,,'1111122,1111122,1111122' 
TCOON,ioos:station:TCOON:031:1,2013-03-01T11:00:00Z,28.4073,-96.7122,0.0,2.4,277.0,3.1,'11111222,11111222,11111222' 
TCOON,ioos:station:TCOON:031:1,2013-03-01T12:00:00Z,28.4073,-96.7122,0.0,2.0,276.0,2.4,'11111222,11111222,11111222' 
TCOON,ioos:station:TCOON:031:1,2013-03-01T13:00:00Z,28.4073,-96.7122,0.0,2.5,335.0,3.0,'11111222,11111222,11111222' 
TCOON,ioos:station:TCOON:031:1,2013-03-01T14:00:00Z,28.4073,-96.7122,0.0,1.2,347.0,2.0,'11111222,11111222,11111222' 
TCOON,ioos:station:TCOON:031:1,2013-03-01T15:00:00Z,28.4073,-96.7122,0.0,3.0,348.0,3.9,'11111222,11111222,11111222' 
TCOON,ioos:station:TCOON:031:1,2013-03-01T16:00:00Z,28.4073,-96.7122,0.0,2.6,3.0,3.9,'11111222,11111222,11111222' 
TCOON,ioos:station:TCOON:031:1,2013-03-01T17:00:00Z,28.4073,-96.7122,0.0,2.5,333.0,4.1,'11111222,11111222,11111222' 
TCOON,ioos:station:TCOON:031:1,2013-03-01T18:00:00Z,28.4073,-96.7122,0.0,2.5,271.0,5.5,'11111222,11111222,11111222' 
TCOON,ioos:station:TCOON:031:1,2013-03-01T19:00:00Z,28.4073,-96.7122,0.0,2.4,174.0,3.0,'11111222,11111222,11111222' 
TCOON,ioos:station:TCOON:031:1,2013-03-01T20:00:00Z,28.4073,-96.7122,0.0,6.7,186.0,10.1,'11111222,11111222,11111222' 
TCOON,ioos:station:TCOON:031:1,2013-03-01T21:00:00Z,28.4073,-96.7122,0.0,5.6,158.0,8.1,'11111222,11111222,11111222' 
TCOON,ioos:station:TCOON:031:1,2013-03-01T22:00:00Z,28.4073,-96.7122,0.0,5.3,145.0,6.4,'11111222,11111222,11111222' 
TCOON,ioos:station:TCOON:031:1,2013-03-01T23:00:00Z,28.4073,-96.7122,0.0,6.3,141.0,7.0,'11111222,11111222,11111222' 
TCOON,ioos:station:TCOON:031:1,2013-03-02T00:00:00Z,28.4073,-96.7122,0.0,4.5,129.0,5.9,'11111222,11111222,11111222' 
TCOON,ioos:station:TCOON:031:1,2013-03-02T01:00:00Z,28.4073,-96.7122,0.0,4.9,142.0,5.7,'11111222,11111222,11111222' 
TCOON,ioos:station:TCOON:031:1,2013-03-02T02:00:00Z,28.4073,-96.7122,0.0,3.4,139.0,4.3,'11111222,11111222,11111222' 
TCOON,ioos:station:TCOON:031:1,2013-03-02T03:00:00Z,28.4073,-96.7122,0.0,4.7,158.0,5.5,'11111222,11111222,11111222' 
TCOON,ioos:station:TCOON:031:1,2013-03-02T04:00:00Z,28.4073,-96.7122,0.0,0.7,325.0,0.8,'11111222,11111222,11111222' 
TCOON,ioos:station:TCOON:031:1,2013-03-02T05:00:00Z,28.4073,-96.7122,0.0,2.5,345.0,3.3,'11111222,11111222,11111222' 
TCOON,ioos:station:TCOON:031:1,2013-03-02T06:00:00Z,28.4073,-96.7122,0.0,2.6,347.0,4.0,'11111222,11111222,11111222' 
TCOON,ioos:station:TCOON:031:1,2013-03-02T07:00:00Z,28.4073,-96.7122,0.0,2.9,358.0,4.5,'11111222,11111222,11111222' 
TCOON,ioos:station:TCOON:031:1,2013-03-02T08:00:00Z,28.4073,-96.7122,0.0,2.3,12.0,2.7,'11111222,11111222,11111222' 
TCOON,ioos:station:TCOON:031:1,2013-03-02T09:00:00Z,28.4073,-96.7122,0.0,2.4,344.0,3.3,'11111222,11111222,11111222' 
TCOON,ioos:station:TCOON:031:1,2013-03-02T10:00:00Z,28.4073,-96.7122,0.0,3.2,336.0,4.3,'11111222,11111222,11111222' 
TCOON,ioos:station:TCOON:031:1,2013-03-02T11:00:00Z,28.4073,-96.7122,0.0,3.5,342.0,5.5,'11111222,11111222,11111222' 
TCOON,ioos:station:TCOON:031:1,2013-03-02T12:00:00Z,28.4073,-96.7122,0.0,3.5,350.0,4.9,'11111222,11111222,11111222' 
TCOON,ioos:station:TCOON:031:1,2013-03-02T13:00:00Z,28.4073,-96.7122,0.0,3.9,342.0,5.2,'11111222,11111222,11111222' 
TCOON,ioos:station:TCOON:031:1,2013-03-02T14:00:00Z,28.4073,-96.7122,0.0,4.1,350.0,,'1111122,1111122,1111122' 
TCOON,ioos:station:TCOON:031:1,2013-03-02T15:00:00Z,28.4073,-96.7122,0.0,6.7,340.0,,'1111122,1111122,1111122' 
TCOON,ioos:station:TCOON:031:1,2013-03-02T16:00:00Z,28.4073,-96.7122,0.0,6.2,340.0,,'1111122,1111122,1111122' 
TCOON,ioos:station:TCOON:031:1,2013-03-02T17:00:00Z,28.4073,-96.7122,0.0,5.7,330.0,,'1111122,1111122,1111122' 
TCOON,ioos:station:TCOON:031:1,2013-03-02T18:00:00Z,28.4073,-96.7122,0.0,8.2,310.0,,'1111122,1111122,1111122' 
TCOON,ioos:station:TCOON:031:1,2013-03-02T19:00:00Z,28.4073,-96.7122,0.0,7.2,330.0,,'1111122,1111122,1111122' 
TCOON,ioos:station:TCOON:031:1,2013-03-02T20:00:00Z,28.4073,-96.7122,0.0,6.2,320.0,,'1111122,1111122,1111122' 
TCOON,ioos:station:TCOON:031:1,2013-03-02T21:00:00Z,28.4073,-96.7122,0.0,7.7,320.0,,'1111122,1111122,1111122' 
TCOON,ioos:station:TCOON:031:1,2013-03-02T22:00:00Z,28.4073,-96.7122,0.0,8.2,320.0,,'1111122,1111122,1111122' 
TCOON,ioos:station:TCOON:031:1,2013-03-02T23:00:00Z,28.4073,-96.7122,0.0,7.7,330.0,,'1111122,1111122,1111122' 
TCOON,ioos:station:TCOON:031:1,2013-03-03T00:00:00Z,28.4073,-96.7122,0.0,4.6,340.0,,'1111122,1111122,1111122' 
TCOON,ioos:station:TCOON:031:1,2013-03-03T01:00:00Z,28.4073,-96.7122,0.0,2.6,360.0,,'1111122,1111122,1111122' 
TCOON,ioos:station:TCOON:031:1,2013-03-03T02:00:00Z,28.4073,-96.7122,0.0,2.6,30.0,,'1111122,1111122,1111122' 
TCOON,ioos:station:TCOON:031:1,2013-03-03T03:00:00Z,28.4073,-96.7122,0.0,2.6,50.0,,'1111122,1111122,1111122' 
TCOON,ioos:station:TCOON:031:1,2013-03-03T04:00:00Z,28.4073,-96.7122,0.0,1.5,70.0,,'1111122,1111122,1111122' 
TCOON,ioos:station:TCOON:031:1,2013-03-03T05:00:00Z,28.4073,-96.7122,0.0,1.5,60.0,,'1111122,1111122,1111122' 
TCOON,ioos:station:TCOON:031:1,2013-03-03T06:00:00Z,28.4073,-96.7122,0.0,1.5,80.0,,'1111122,1111122,1111122' 
TCOON,ioos:station:TCOON:031:1,2013-03-03T07:00:00Z,28.4073,-96.7122,0.0,1.5,70.0,,'1111122,1111122,1111122' 
TCOON,ioos:station:TCOON:031:1,2013-03-03T08:00:00Z,28.4073,-96.7122,0.0,2.1,50.0,,'1111122,1111122,1111122' 
TCOON,ioos:station:TCOON:031:1,2013-03-03T09:00:00Z,28.4073,-96.7122,0.0,2.1,50.0,,'1111122,1111122,1111122' 
TCOON,ioos:station:TCOON:031:1,2013-03-03T10:00:00Z,28.4073,-96.7122,0.0,1.5,70.0,,'1111122,1111122,1111122' 
TCOON,ioos:station:TCOON:031:1,2013-03-03T11:00:00Z,28.4073,-96.7122,0.0,1.5,60.0,,'1111122,1111122,1111122' 
TCOON,ioos:station:TCOON:031:1,2013-03-03T12:00:00Z,28.4073,-96.7122,0.0,2.1,50.0,,'1111122,1111122,1111122' 
TCOON,ioos:station:TCOON:031:1,2013-03-03T13:00:00Z,28.4073,-96.7122,0.0,2.6,60.0,,'1111122,1111122,1111122' 
TCOON,ioos:station:TCOON:031:1,2013-03-03T14:00:00Z,28.4073,-96.7122,0.0,1.5,80.0,,'1111122,1111122,1111122' 
TCOON,ioos:station:TCOON:031:1,2013-03-03T15:00:00Z,28.4073,-96.7122,0.0,5.1,140.0,,'1111122,1111122,1111122' 
TCOON,ioos:station:TCOON:031:1,2013-03-03T16:00:00Z,28.4073,-96.7122,0.0,6.2,150.0,,'1111122,1111122,1111122' 
TCOON,ioos:station:TCOON:031:1,2013-03-03T17:00:00Z,28.4073,-96.7122,0.0,6.2,160.0,,'1111122,1111122,1111122' 
TCOON,ioos:station:TCOON:031:1,2013-03-03T18:00:00Z,28.4073,-96.7122,0.0,4.1,160.0,,'1111122,1111122,1111122' 
TCOON,ioos:station:TCOON:031:1,2013-03-03T19:00:00Z,28.4073,-96.7122,0.0,6.2,150.0,,'1111122,1111122,1111122' 
TCOON,ioos:station:TCOON:031:1,2013-03-03T20:00:00Z,28.4073,-96.7122,0.0,6.2,160.0,,'1111122,1111122,1111122' 
TCOON,ioos:station:TCOON:031:1,2013-03-03T21:00:00Z,28.4073,-96.7122,0.0,7.2,160.0,,'1111122,1111122,1111122' 
TCOON,ioos:station:TCOON:031:1,2013-03-03T22:00:00Z,28.4073,-96.7122,0.0,6.7,160.0,,'1111122,1111122,1111122' 
TCOON,ioos:station:TCOON:031:1,2013-03-03T23:00:00Z,28.4073,-96.7122,0.0,8.7,150.0,,'1111122,1111122,1111122' 
TCOON,ioos:station:TCOON:031:1,2013-03-04T00:00:00Z,28.4073,-96.7122,0.0,8.2,140.0,,'1111122,1111122,1111122' 
TCOON,ioos:station:TCOON:031:1,2013-03-04T01:00:00Z,28.4073,-96.7122,0.0,6.2,130.0,,'1111122,1111122,1111122' 
TCOON,ioos:station:TCOON:031:1,2013-03-04T02:00:00Z,28.4073,-96.7122,0.0,7.7,140.0,,'1111122,1111122,1111122' 
TCOON,ioos:station:TCOON:031:1,2013-03-04T03:00:00Z,28.4073,-96.7122,0.0,8.2,150.0,,'1111122,1111122,1111122' 
TCOON,ioos:station:TCOON:031:1,2013-03-04T04:00:00Z,28.4073,-96.7122,0.0,8.2,160.0,,'1111122,1111122,1111122' 
TCOON,ioos:station:TCOON:031:1,2013-03-04T05:00:00Z,28.4073,-96.7122,0.0,8.7,160.0,,'1111122,1111122,1111122' 
TCOON,ioos:station:TCOON:031:1,2013-03-04T06:00:00Z,28.4073,-96.7122,0.0,8.7,160.0,,'1111122,1111122,1111122' 
TCOON,ioos:station:TCOON:031:1,2013-03-04T07:00:00Z,28.4073,-96.7122,0.0,7.7,160.0,,'1111122,1111122,1111122' 
TCOON,ioos:station:TCOON:031:1,2013-03-04T08:00:00Z,28.4073,-96.7122,0.0,7.7,160.0,,'1111122,1111122,1111122' 
TCOON,ioos:station:TCOON:031:1,2013-03-04T09:00:00Z,28.4073,-96.7122,0.0,7.2,170.0,,'1111122,1111122,1111122' 
TCOON,ioos:station:TCOON:031:1,2013-03-04T10:00:00Z,28.4073,-96.7122,0.0,7.2,170.0,,'1111122,1111122,1111122' 
TCOON,ioos:station:TCOON:031:1,2013-03-04T11:00:00Z,28.4073,-96.7122,0.0,8.7,170.0,,'1111122,1111122,1111122' 
TCOON,ioos:station:TCOON:031:1,2013-03-04T12:00:00Z,28.4073,-96.7122,0.0,7.7,170.0,,'1111122,1111122,1111122' 
TCOON,ioos:station:TCOON:031:1,2013-03-04T13:00:00Z,28.4073,-96.7122,0.0,7.2,170.0,,'1111122,1111122,1111122' 
TCOON,ioos:station:TCOON:031:1,2013-03-04T14:00:00Z,28.4073,-96.7122,0.0,7.2,170.0,,'1111122,1111122,1111122' 
TCOON,ioos:station:TCOON:031:1,2013-03-04T15:00:00Z,28.4073,-96.7122,0.0,9.3,170.0,,'1111122,1111122,1111122' 
TCOON,ioos:station:TCOON:031:1,2013-03-04T16:00:00Z,28.4073,-96.7122,0.0,9.8,180.0,,'1111122,1111122,1111122' 
TCOON,ioos:station:TCOON:031:1,2013-03-04T17:00:00Z,28.4073,-96.7122,0.0,10.3,170.0,,'1111122,1111122,1111122' 
TCOON,ioos:station:TCOON:031:1,2013-03-04T18:00:00Z,28.4073,-96.7122,0.0,9.8,180.0,,'1111122,1111122,1111122' 
TCOON,ioos:station:TCOON:031:1,2013-03-04T19:00:00Z,28.4073,-96.7122,0.0,9.3,170.0,,'1111122,1111122,1111122' 
TCOON,ioos:station:TCOON:031:1,2013-03-04T20:00:00Z,28.4073,-96.7122,0.0,10.3,170.0,,'1111122,1111122,1111122' 
TCOON,ioos:station:TCOON:031:1,2013-03-04T21:00:00Z,28.4073,-96.7122,0.0,10.3,160.0,,'1111122,1111122,1111122' 
TCOON,ioos:station:TCOON:031:1,2013-03-04T22:00:00Z,28.4073,-96.7122,0.0,10.3,160.0,,'1111122,1111122,1111122' 
TCOON,ioos:station:TCOON:031:1,2013-03-04T23:00:00Z,28.4073,-96.7122,0.0,9.8,160.0,,'1111122,1111122,1111122' 
TCOON,ioos:station:TCOON:031:1,2013-03-05T00:00:00Z,28.4073,-96.7122,0.0,10.3,160.0,,'1111122,1111122,1111122' 
TCOON,ioos:station:TCOON:031:1,2013-03-05T01:00:00Z,28.4073,-96.7122,0.0,10.3,160.0,,'1111122,1111122,1111122' 
TCOON,ioos:station:TCOON:031:1,2013-03-05T02:00:00Z,28.4073,-96.7122,0.0,10.8,160.0,,'1111122,1111122,1111122' 
TCOON,ioos:station:TCOON:031:1,2013-03-05T03:00:00Z,28.4073,-96.7122,0.0,10.8,160.0,,'1111122,1111122,1111122' 
TCOON,ioos:station:TCOON:031:1,2013-03-05T04:00:00Z,28.4073,-96.7122,0.0,10.8,160.0,,'1111122,1111122,1111122' 
TCOON,ioos:station:TCOON:031:1,2013-03-05T05:00:00Z,28.4073,-96.7122,0.0,11.3,170.0,,'1111122,1111122,1111122' 
TCOON,ioos:station:TCOON:031:1,2013-03-05T06:00:00Z,28.4073,-96.7122,0.0,9.8,170.0,,'1111122,1111122,1111122' 
TCOON,ioos:station:TCOON:031:1,2013-03-05T07:00:00Z,28.4073,-96.7122,0.0,10.3,170.0,,'1111122,1111122,1111122' 
TCOON,ioos:station:TCOON:031:1,2013-03-05T08:00:00Z,28.4073,-96.7122,0.0,8.7,170.0,,'1111122,1111122,1111122' 
TCOON,ioos:station:TCOON:031:1,2013-03-05T09:00:00Z,28.4073,-96.7122,0.0,7.2,170.0,,'1111122,1111122,1111122' 
TCOON,ioos:station:TCOON:031:1,2013-03-05T10:00:00Z,28.4073,-96.7122,0.0,7.2,160.0,,'1111122,1111122,1111122' 
TCOON,ioos:station:TCOON:031:1,2013-03-05T11:00:00Z,28.4073,-96.7122,0.0,6.7,170.0,,'1111122,1111122,1111122' 
TCOON,ioos:station:TCOON:031:1,2013-03-05T12:00:00Z,28.4073,-96.7122,0.0,8.7,310.0,,'1111122,1111122,1111122' 
TCOON,ioos:station:TCOON:031:1,2013-03-05T13:00:00Z,28.4073,-96.7122,0.0,3.1,330.0,,'1111122,1111122,1111122' 
TCOON,ioos:station:TCOON:031:1,2013-03-05T14:00:00Z,28.4073,-96.7122,0.0,8.2,340.0,,'1111122,1111122,1111122' 
TCOON,ioos:station:TCOON:031:1,2013-03-05T15:00:00Z,28.4073,-96.7122,0.0,8.7,350.0,,'1111122,1111122,1111122' 
TCOON,ioos:station:TCOON:031:1,2013-03-05T16:00:00Z,28.4073,-96.7122,0.0,7.7,360.0,,'1111122,1111122,1111122' 
TCOON,ioos:station:TCOON:031:1,2013-03-05T17:00:00Z,28.4073,-96.7122,0.0,7.5,348.0,12.2,'11111222,11111222,11111222' 
TCOON,ioos:station:TCOON:031:1,2013-03-05T18:00:00Z,28.4073,-96.7122,0.0,9.8,360.0,,'1111122,1111122,1111122' 
TCOON,ioos:station:TCOON:031:1,2013-03-05T19:00:00Z,28.4073,-96.7122,0.0,8.2,350.0,,'1111122,1111122,1111122' 
TCOON,ioos:station:TCOON:031:1,2013-03-05T20:00:00Z,28.4073,-96.7122,0.0,7.7,350.0,,'1111122,1111122,1111122' 
TCOON,ioos:station:TCOON:031:1,2013-03-05T21:00:00Z,28.4073,-96.7122,0.0,6.7,320.0,,'1111122,1111122,1111122' 
TCOON,ioos:station:TCOON:031:1,2013-03-05T22:00:00Z,28.4073,-96.7122,0.0,5.1,340.0,,'1111122,1111122,1111122' 
TCOON,ioos:station:TCOON:031:1,2013-03-05T23:00:00Z,28.4073,-96.7122,0.0,8.2,330.0,,'1111122,1111122,1111122' 
TCOON,ioos:station:TCOON:031:1,2013-03-06T00:00:00Z,28.4073,-96.7122,0.0,5.1,340.0,,'1111122,1111122,1111122' 
TCOON,ioos:station:TCOON:031:1,2013-03-06T01:00:00Z,28.4073,-96.7122,0.0,3.6,340.0,,'1111122,1111122,1111122' 
TCOON,ioos:station:TCOON:031:1,2013-03-06T02:00:00Z,28.4073,-96.7122,0.0,3.1,330.0,,'1111122,1111122,1111122' 
TCOON,ioos:station:TCOON:031:1,2013-03-06T03:00:00Z,28.4073,-96.7122,0.0,2.6,340.0,,'1111122,1111122,1111122' 
TCOON,ioos:station:TCOON:031:1,2013-03-06T04:00:00Z,28.4073,-96.7122,0.0,2.6,350.0,,'1111122,1111122,1111122' 
TCOON,ioos:station:TCOON:031:1,2013-03-06T05:00:00Z,28.4073,-96.7122,0.0,2.1,350.0,,'1111122,1111122,1111122' 
TCOON,ioos:station:TCOON:031:1,2013-03-06T06:00:00Z,28.4073,-96.7122,0.0,2.6,350.0,,'1111122,1111122,1111122' 
TCOON,ioos:station:TCOON:031:1,2013-03-06T07:00:00Z,28.4073,-96.7122,0.0,2.6,350.0,,'1111122,1111122,1111122' 
TCOON,ioos:station:TCOON:031:1,2013-03-06T08:00:00Z,28.4073,-96.7122,0.0,3.1,340.0,,'1111122,1111122,1111122' 
TCOON,ioos:station:TCOON:031:1,2013-03-06T09:00:00Z,28.4073,-96.7122,0.0,3.1,340.0,,'1111122,1111122,1111122' 
TCOON,ioos:station:TCOON:031:1,2013-03-06T10:00:00Z,28.4073,-96.7122,0.0,3.1,350.0,,'1111122,1111122,1111122' 
TCOON,ioos:station:TCOON:031:1,2013-03-06T11:00:00Z,28.4073,-96.7122,0.0,2.6,360.0,,'1111122,1111122,1111122' 
TCOON,ioos:station:TCOON:031:1,2013-03-06T12:00:00Z,28.4073,-96.7122,0.0,3.1,350.0,,'1111122,1111122,1111122' 
TCOON,ioos:station:TCOON:031:1,2013-03-06T13:00:00Z,28.4073,-96.7122,0.0,2.6,330.0,,'1111122,1111122,1111122' 
TCOON,ioos:station:TCOON:031:1,2013-03-06T14:00:00Z,28.4073,-96.7122,0.0,3.1,350.0,,'1111122,1111122,1111122' 
TCOON,ioos:station:TCOON:031:1,2013-03-06T15:00:00Z,28.4073,-96.7122,0.0,5.1,30.0,,'1111122,1111122,1111122' 
TCOON,ioos:station:TCOON:031:1,2013-03-06T16:00:00Z,28.4073,-96.7122,0.0,5.7,40.0,,'1111122,1111122,1111122' 
TCOON,ioos:station:TCOON:031:1,2013-03-06T17:00:00Z,28.4073,-96.7122,0.0,4.6,60.0,,'1111122,1111122,1111122' 
TCOON,ioos:station:TCOON:031:1,2013-03-06T18:00:00Z,28.4073,-96.7122,0.0,3.9,42.0,6.1,'11111222,11111222,11111222' 
TCOON,ioos:station:TCOON:031:1,2013-03-06T19:00:00Z,28.4073,-96.7122,0.0,3.1,20.0,,'1111122,1111122,1111122' 
TCOON,ioos:station:TCOON:031:1,2013-03-06T20:00:00Z,28.4073,-96.7122,0.0,1.5,50.0,,'1111122,1111122,1111122' 
TCOON,ioos:station:TCOON:031:1,2013-03-06T21:00:00Z,28.4073,-96.7122,0.0,2.1,50.0,,'1111122,1111122,1111122' 
TCOON,ioos:station:TCOON:031:1,2013-03-06T22:00:00Z,28.4073,-96.7122,0.0,3.1,100.0,,'1111122,1111122,1111122' 
TCOON,ioos:station:TCOON:031:1,2013-03-06T23:00:00Z,28.4073,-96.7122,0.0,4.6,130.0,,'1111122,1111122,1111122' 
TCOON,ioos:station:TCOON:031:1,2013-03-07T00:00:00Z,28.4073,-96.7122,0.0,4.1,130.0,,'1111122,1111122,1111122' 
TCOON,ioos:station:TCOON:031:1,2013-03-07T01:00:00Z,28.4073,-96.7122,0.0,3.6,130.0,,'1111122,1111122,1111122' 
TCOON,ioos:station:TCOON:031:1,2013-03-07T02:00:00Z,28.4073,-96.7122,0.0,1.0,70.0,,'1111122,1111122,1111122' 
TCOON,ioos:station:TCOON:031:1,2013-03-07T03:00:00Z,28.4073,-96.7122,0.0,1.5,40.0,,'1111122,1111122,1111122' 
TCOON,ioos:station:TCOON:031:1,2013-03-07T04:00:00Z,28.4073,-96.7122,0.0,1.0,30.0,,'1111122,1111122,1111122' 
TCOON,ioos:station:TCOON:031:1,2013-03-07T05:00:00Z,28.4073,-96.7122,0.0,1.5,90.0,,'1111122,1111122,1111122' 
TCOON,ioos:station:TCOON:031:1,2013-03-07T06:00:00Z,28.4073,-96.7122,0.0,2.6,100.0,,'1111122,1111122,1111122' 
TCOON,ioos:station:TCOON:031:1,2013-03-07T07:00:00Z,28.4073,-96.7122,0.0,1.0,50.0,,'1111122,1111122,1111122' 
TCOON,ioos:station:TCOON:031:1,2013-03-07T08:00:00Z,28.4073,-96.7122,0.0,2.1,30.0,,'1111122,1111122,1111122' 
TCOON,ioos:station:TCOON:031:1,2013-03-07T09:00:00Z,28.4073,-96.7122,0.0,2.1,40.0,,'1111122,1111122,1111122' 
TCOON,ioos:station:TCOON:031:1,2013-03-07T10:00:00Z,28.4073,-96.7122,0.0,2.1,50.0,,'1111122,1111122,1111122' 
TCOON,ioos:station:TCOON:031:1,2013-03-07T11:00:00Z,28.4073,-96.7122,0.0,2.1,30.0,,'1111122,1111122,1111122' 
TCOON,ioos:station:TCOON:031:1,2013-03-07T12:00:00Z,28.4073,-96.7122,0.0,2.1,60.0,,'1111122,1111122,1111122' 
TCOON,ioos:station:TCOON:031:1,2013-03-07T13:00:00Z,28.4073,-96.7122,0.0,2.1,30.0,,'1111122,1111122,1111122' 
TCOON,ioos:station:TCOON:031:1,2013-03-07T14:00:00Z,28.4073,-96.7122,0.0,2.1,70.0,,'1111122,1111122,1111122' 
TCOON,ioos:station:TCOON:031:1,2013-03-07T15:00:00Z,28.4073,-96.7122,0.0,4.6,100.0,,'1111122,1111122,1111122' 
TCOON,ioos:station:TCOON:031:1,2013-03-07T16:00:00Z,28.4073,-96.7122,0.0,5.1,110.0,,'1111122,1111122,1111122' 
TCOON,ioos:station:TCOON:031:1,2013-03-07T17:00:00Z,28.4073,-96.7122,0.0,6.2,90.0,,'1111122,1111122,1111122' 
TCOON,ioos:station:TCOON:031:1,2013-03-07T18:00:00Z,28.4073,-96.7122,0.0,6.2,90.0,,'1111122,1111122,1111122' 
TCOON,ioos:station:TCOON:031:1,2013-03-07T19:00:00Z,28.4073,-96.7122,0.0,8.7,110.0,,'1111122,1111122,1111122' 
TCOON,ioos:station:TCOON:031:1,2013-03-07T20:00:00Z,28.4073,-96.7122,0.0,6.7,90.0,,'1111122,1111122,1111122' 
TCOON,ioos:station:TCOON:031:1,2013-03-07T21:00:00Z,28.4073,-96.7122,0.0,7.2,110.0,,'1111122,1111122,1111122' 
TCOON,ioos:station:TCOON:031:1,2013-03-07T22:00:00Z,28.4073,-96.7122,0.0,6.7,90.0,,'1111122,1111122,1111122' 
TCOON,ioos:station:TCOON:031:1,2013-03-07T23:00:00Z,28.4073,-96.7122,0.0,7.2,100.0,,'1111122,1111122,1111122' 
TCOON,ioos:station:TCOON:031:1,2013-03-08T00:00:00Z,28.4073,-96.7122,0.0,6.2,90.0,,'1111122,1111122,1111122' 
TCOON,ioos:station:TCOON:031:1,2013-03-08T01:00:00Z,28.4073,-96.7122,0.0,3.6,80.0,,'1111122,1111122,1111122' 
TCOON,ioos:station:TCOON:031:1,2013-03-08T02:00:00Z,28.4073,-96.7122,0.0,4.1,90.0,,'1111122,1111122,1111122' 
TCOON,ioos:station:TCOON:031:1,2013-03-08T03:00:00Z,28.4073,-96.7122,0.0,2.6,80.0,,'1111122,1111122,1111122' 
TCOON,ioos:station:TCOON:031:1,2013-03-08T04:00:00Z,28.4073,-96.7122,0.0,2.6,80.0,,'1111122,1111122,1111122' 
TCOON,ioos:station:TCOON:031:1,2013-03-08T05:00:00Z,28.4073,-96.7122,0.0,2.6,90.0,,'1111122,1111122,1111122' 
TCOON,ioos:station:TCOON:031:1,2013-03-08T06:00:00Z,28.4073,-96.7122,0.0,2.6,90.0,,'1111122,1111122,1111122' 
TCOON,ioos:station:TCOON:031:1,2013-03-08T07:00:00Z,28.4073,-96.7122,0.0,3.1,90.0,,'1111122,1111122,1111122' 
TCOON,ioos:station:TCOON:031:1,2013-03-08T08:00:00Z,28.4073,-96.7122,0.0,2.6,80.0,,'1111122,1111122,1111122' 
TCOON,ioos:station:TCOON:031:1,2013-03-08T09:00:00Z,28.4073,-96.7122,0.0,3.1,90.0,,'1111122,1111122,1111122' 
TCOON,ioos:station:TCOON:031:1,2013-03-08T10:00:00Z,28.4073,-96.7122,0.0,3.1,80.0,,'1111122,1111122,1111122' 
TCOON,ioos:station:TCOON:031:1,2013-03-08T11:00:00Z,28.4073,-96.7122,0.0,2.1,90.0,,'1111122,1111122,1111122' 
TCOON,ioos:station:TCOON:031:1,2013-03-08T12:00:00Z,28.4073,-96.7122,0.0,2.6,90.0,,'1111122,1111122,1111122' 
TCOON,ioos:station:TCOON:031:1,2013-03-08T13:00:00Z,28.4073,-96.7122,0.0,3.1,100.0,,'1111122,1111122,1111122' 
TCOON,ioos:station:TCOON:031:1,2013-03-08T14:00:00Z,28.4073,-96.7122,0.0,4.1,100.0,,'1111122,1111122,1111122' 
TCOON,ioos:station:TCOON:031:1,2013-03-08T15:00:00Z,28.4073,-96.7122,0.0,5.1,110.0,,'1111122,1111122,1111122' 
TCOON,ioos:station:TCOON:031:1,2013-03-08T16:00:00Z,28.4073,-96.7122,0.0,4.6,100.0,,'1111122,1111122,1111122' 
TCOON,ioos:station:TCOON:031:1,2013-03-08T17:00:00Z,28.4073,-96.7122,0.0,5.7,110.0,,'1111122,1111122,1111122' 
TCOON,ioos:station:TCOON:031:1,2013-03-08T18:00:00Z,28.4073,-96.7122,0.0,7.2,100.0,,'1111122,1111122,1111122' 
TCOON,ioos:station:TCOON:031:1,2013-03-08T19:00:00Z,28.4073,-96.7122,0.0,7.7,100.0,,'1111122,1111122,1111122' 
TCOON,ioos:station:TCOON:031:1,2013-03-08T20:00:00Z,28.4073,-96.7122,0.0,8.2,100.0,,'1111122,1111122,1111122' 
TCOON,ioos:station:TCOON:031:1,2013-03-08T21:00:00Z,28.4073,-96.7122,0.0,7.2,100.0,,'1111122,1111122,1111122' 
TCOON,ioos:station:TCOON:031:1,2013-03-08T22:00:00Z,28.4073,-96.7122,0.0,8.7,110.0,,'1111122,1111122,1111122' 
TCOON,ioos:station:TCOON:031:1,2013-03-08T23:00:00Z,28.4073,-96.7122,0.0,4.1,100.0,,'1111122,1111122,1111122' 
TCOON,ioos:station:TCOON:031:1,2013-03-09T00:00:00Z,28.4073,-96.7122,0.0,4.6,90.0,,'1111122,1111122,1111122' 
TCOON,ioos:station:TCOON:031:1,2013-03-09T01:00:00Z,28.4073,-96.7122,0.0,5.7,90.0,,'1111122,1111122,1111122' 
TCOON,ioos:station:TCOON:031:1,2013-03-09T02:00:00Z,28.4073,-96.7122,0.0,5.1,100.0,,'1111122,1111122,1111122' 
TCOON,ioos:station:TCOON:031:1,2013-03-09T03:00:00Z,28.4073,-96.7122,0.0,7.2,100.0,,'1111122,1111122,1111122' 
TCOON,ioos:station:TCOON:031:1,2013-03-09T04:00:00Z,28.4073,-96.7122,0.0,6.2,110.0,,'1111122,1111122,1111122' 
TCOON,ioos:station:TCOON:031:1,2013-03-09T05:00:00Z,28.4073,-96.7122,0.0,6.2,120.0,,'1111122,1111122,1111122' 
TCOON,ioos:station:TCOON:031:1,2013-03-09T06:00:00Z,28.4073,-96.7122,0.0,5.7,120.0,,'1111122,1111122,1111122' 
TCOON,ioos:station:TCOON:031:1,2013-03-09T07:00:00Z,28.4073,-96.7122,0.0,5.1,120.0,,'1111122,1111122,1111122' 
TCOON,ioos:station:TCOON:031:1,2013-03-09T08:00:00Z,28.4073,-96.7122,0.0,6.2,130.0,,'1111122,1111122,1111122' 
TCOON,ioos:station:TCOON:031:1,2013-03-09T09:00:00Z,28.4073,-96.7122,0.0,7.7,130.0,,'1111122,1111122,1111122' 
TCOON,ioos:station:TCOON:031:1,2013-03-09T10:00:00Z,28.4073,-96.7122,0.0,6.2,130.0,,'1111122,1111122,1111122' 
TCOON,ioos:station:TCOON:031:1,2013-03-09T11:00:00Z,28.4073,-96.7122,0.0,4.1,130.0,,'1111122,1111122,1111122' 
TCOON,ioos:station:TCOON:031:1,2013-03-09T12:00:00Z,28.4073,-96.7122,0.0,4.1,120.0,,'1111122,1111122,1111122' 
TCOON,ioos:station:TCOON:031:1,2013-03-09T13:00:00Z,28.4073,-96.7122,0.0,5.1,130.0,,'1111122,1111122,1111122' 
TCOON,ioos:station:TCOON:031:1,2013-03-09T14:00:00Z,28.4073,-96.7122,0.0,5.1,140.0,,'1111122,1111122,1111122' 
TCOON,ioos:station:TCOON:031:1,2013-03-09T15:00:00Z,28.4073,-96.7122,0.0,5.7,130.0,,'1111122,1111122,1111122' 
TCOON,ioos:station:TCOON:031:1,2013-03-09T16:00:00Z,28.4073,-96.7122,0.0,6.7,130.0,,'1111122,1111122,1111122' 
TCOON,ioos:station:TCOON:031:1,2013-03-09T17:00:00Z,28.4073,-96.7122,0.0,9.3,130.0,,'1111122,1111122,1111122' 
TCOON,ioos:station:TCOON:031:1,2013-03-09T18:00:00Z,28.4073,-96.7122,0.0,9.3,130.0,,'1111122,1111122,1111122' 
TCOON,ioos:station:TCOON:031:1,2013-03-09T19:00:00Z,28.4073,-96.7122,0.0,11.8,140.0,,'1111122,1111122,1111122' 
TCOON,ioos:station:TCOON:031:1,2013-03-09T20:00:00Z,28.4073,-96.7122,0.0,11.3,130.0,,'1111122,1111122,1111122' 